Algona, IA

2:50 PM CDT on June 25, 2017 (GMT -0500)
Algona Municipal

Weather History for KAXA - December, 2012

Change the Weather History Date:

Friday, December 28, 2012

  Actual Average Record
Temperature  
Mean Temperature 16 °F -  
Max Temperature 21 °F 24 °F 59 °F (2002)
Min Temperature 10 °F 10 °F 1 °F (1996)
Degree Days  
Heating Degree Days 50    
Moisture  
Dew Point 17 °F    
Average Humidity 91    
Maximum Humidity 93    
Minimum Humidity 85    
Precipitation  
Precipitation 0.00 in - - ()
Sea Level Pressure  
Sea Level Pressure 29.99 in    
Wind  
Wind Speed 9 mph (NNE)    
Max Wind Speed 14 mph    
Max Gust Speed 16 mph    
Visibility 6 miles    
Events Rain , Snow    
Averages and records for this station are not official NWS values.
T = Trace of Precipitation, MM = Missing Value Source: NWS Daily Summary

Daily Weather History Graph

Daily Weather History Graph

Search for Another Location

Airport or City:

Trip Planner

Search our weather history database for the weather conditions in past years. The results will help you decide how hot, cold, wet, or windy it might be!

Date:

Astronomy

Dec. 28, 2012 Rise Set
Actual Time 7:48 AM CST 4:49 PM CST
Civil Twilight 7:15 AM CST 5:22 PM CST
Nautical Twilight 6:39 AM CST 5:58 PM CST
Astronomical Twilight 6:05 AM CST 6:32 PM CST
Moon 5:28 PM CST (12/28) 7:41 AM CST (12/28)
Length of Visible Light 10h 06m
Length of Day
9h 01m
Full, 100% of the Moon is Illuminated
Dec 28
Full
Jan 4
Last Quarter
Jan 11
New
Jan 18
First Quarter
Jan 26
Full

Hourly Weather History & Observations

Time (CST) Temp. Windchill Dew Point Humidity Pressure Visibility Wind Dir Wind Speed Gust Speed Precip Events Conditions
12:15 AM 21.2 °F 10.1 °F 19.4 °F 93% 30.03 in 10.0 mi East 10.4 mph - N/A   Overcast
12:35 AM 21.2 °F 8.9 °F 19.4 °F 93% 30.02 in 10.0 mi ENE 12.7 mph - N/A   Overcast
12:55 AM 21.2 °F 8.9 °F 19.4 °F 93% 30.01 in 10.0 mi East 12.7 mph - N/A   Overcast
1:15 AM 21.2 °F 10.1 °F 19.4 °F 93% 30.01 in 7.0 mi East 10.4 mph - N/A Snow Light Snow
1:35 AM 21.2 °F 10.9 °F 19.4 °F 93% 30.01 in 5.0 mi East 9.2 mph 15.0 mph N/A Snow Light Snow
1:55 AM 21.2 °F 10.1 °F 19.4 °F 93% 30.01 in 4.0 mi East 10.4 mph - N/A Snow Light Snow
2:15 AM 21.2 °F 10.1 °F 19.4 °F 93% 30.01 in 2.0 mi East 10.4 mph - N/A Snow Light Snow
2:35 AM 21.2 °F 10.9 °F 19.4 °F 93% 30.01 in 2.0 mi East 9.2 mph - N/A Snow Light Snow
2:55 AM 21.2 °F 10.9 °F 19.4 °F 93% 30.01 in 2.5 mi East 9.2 mph - N/A Snow Light Snow
3:15 AM 21.2 °F 10.1 °F 19.4 °F 93% 30.00 in 3.0 mi East 10.4 mph - N/A Snow Light Snow
3:35 AM 21.2 °F 10.9 °F 19.4 °F 93% 30.00 in 2.5 mi East 9.2 mph - N/A Snow Light Snow
3:55 AM 21.2 °F 10.1 °F 19.4 °F 93% 29.99 in 3.0 mi East 10.4 mph - N/A Snow Light Snow
4:15 AM 21.2 °F 10.1 °F 19.4 °F 93% 29.99 in 4.0 mi East 10.4 mph - N/A Snow Light Snow
4:35 AM 21.2 °F 11.7 °F 17.6 °F 86% 29.98 in 4.0 mi East 8.1 mph - N/A Snow Light Snow
4:55 AM 19.4 °F 9.5 °F 17.6 °F 93% 29.98 in 5.0 mi East 8.1 mph - N/A Snow Light Snow
5:15 AM 19.4 °F 9.5 °F 17.6 °F 93% 29.97 in 6.0 mi East 8.1 mph - N/A Snow Light Snow
5:35 AM 17.6 °F 8.2 °F 15.8 °F 93% 29.98 in 8.0 mi ENE 6.9 mph - N/A   Overcast
5:55 AM 17.6 °F 10.7 °F 15.8 °F 93% 29.97 in 8.0 mi NE 4.6 mph - N/A   Overcast
6:35 AM 19.4 °F 12.8 °F 17.6 °F 93% 29.98 in 5.0 mi ENE 4.6 mph - N/A Snow Light Snow
6:55 AM 19.4 °F 12.8 °F 17.6 °F 93% 29.98 in 5.0 mi ENE 4.6 mph - N/A Snow Light Snow
7:15 AM 19.4 °F - 17.6 °F 93% 29.98 in 4.0 mi Calm Calm - N/A Snow Light Snow
7:55 AM 19.4 °F 12.8 °F 17.6 °F 93% 29.98 in 3.0 mi North 4.6 mph - N/A Snow Light Snow
8:15 AM 17.6 °F 10.7 °F 15.8 °F 93% 29.98 in 4.0 mi North 4.6 mph - N/A Snow Light Snow
8:35 AM 17.6 °F 9.3 °F 15.8 °F 93% 29.98 in 4.0 mi NNE 5.8 mph - N/A Snow Light Snow
8:55 AM 17.6 °F 10.7 °F 15.8 °F 93% 29.98 in 5.0 mi North 4.6 mph - N/A Snow Light Snow
9:15 AM 17.6 °F 9.3 °F 15.8 °F 93% 29.99 in 4.0 mi NNE 5.8 mph - N/A Snow Light Snow
9:35 AM 17.6 °F 10.7 °F 15.8 °F 93% 29.99 in 4.0 mi North 4.6 mph - N/A Snow Light Snow
9:55 AM 17.6 °F 9.3 °F 15.8 °F 93% 30.00 in 5.0 mi NNE 5.8 mph - N/A Snow Light Snow
10:15 AM 19.4 °F 11.5 °F 17.6 °F 93% 30.00 in 5.0 mi NNE 5.8 mph - N/A Snow Light Snow
10:35 AM 19.4 °F 11.5 °F 17.6 °F 93% 30.00 in 4.0 mi NNE 5.8 mph - N/A Snow Light Snow
10:55 AM 19.4 °F 10.4 °F 17.6 °F 93% 29.99 in 3.0 mi NNE 6.9 mph - N/A   Mostly Cloudy
11:15 AM 21.2 °F 13.6 °F 17.6 °F 86% 29.98 in 5.0 mi North 5.8 mph - N/A   Overcast
11:35 AM 21.2 °F 11.7 °F 17.6 °F 86% 29.97 in 5.0 mi North 8.1 mph - N/A Rain Light Freezing Rain
11:55 AM 21.2 °F 11.7 °F 17.6 °F 86% 29.96 in 3.0 mi NNE 8.1 mph - N/A Rain Light Freezing Rain
12:15 PM 21.2 °F 10.9 °F 19.4 °F 93% 29.96 in 3.0 mi NNE 9.2 mph - N/A Rain Light Freezing Rain
12:35 PM 21.2 °F 10.1 °F 19.4 °F 93% 29.95 in 5.0 mi NNE 10.4 mph - N/A Rain Light Freezing Rain
12:55 PM 21.2 °F 10.1 °F 19.4 °F 93% 29.94 in 5.0 mi NNE 10.4 mph - N/A Rain Light Freezing Rain
1:15 PM 21.2 °F 10.9 °F 19.4 °F 93% 29.94 in 5.0 mi North 9.2 mph - N/A   Overcast
1:35 PM 21.2 °F 10.9 °F 19.4 °F 93% 29.94 in 5.0 mi North 9.2 mph - N/A   Overcast
1:55 PM 21.2 °F 10.9 °F 19.4 °F 93% 29.94 in 5.0 mi North 9.2 mph - N/A   Overcast
2:15 PM 21.2 °F 11.7 °F 19.4 °F 93% 29.94 in 5.0 mi North 8.1 mph - N/A   Overcast
2:35 PM 21.2 °F 10.9 °F 17.6 °F 86% 29.95 in 5.0 mi North 9.2 mph 15.0 mph N/A   Overcast
2:55 PM 21.2 °F 10.1 °F 19.4 °F 93% 29.95 in 5.0 mi North 10.4 mph - N/A   Light Freezing Rain
3:15 PM 21.2 °F 9.5 °F 19.4 °F 93% 29.96 in 5.0 mi North 11.5 mph - N/A Rain Light Freezing Rain
3:35 PM 21.2 °F 9.5 °F 17.6 °F 86% 29.96 in 3.0 mi North 11.5 mph - N/A Snow Light Snow
3:55 PM 19.4 °F 6.6 °F 17.6 °F 93% 29.97 in 3.0 mi North 12.7 mph - N/A Snow Light Snow
4:35 PM 19.4 °F 8.6 °F 15.8 °F 86% 29.97 in 5.0 mi North 9.2 mph - N/A Snow Light Snow
4:55 PM 19.4 °F 8.6 °F 15.8 °F 86% 29.98 in 5.0 mi North 9.2 mph - N/A Rain Light Freezing Rain
5:15 PM 19.4 °F 7.9 °F 17.6 °F 93% 29.98 in 6.0 mi North 10.4 mph - N/A   Overcast
5:35 PM 19.4 °F 9.5 °F 17.6 °F 93% 29.98 in 7.0 mi North 8.1 mph - N/A Rain Light Freezing Rain
5:55 PM 19.4 °F 7.9 °F 15.8 °F 86% 29.99 in 7.0 mi North 10.4 mph - N/A   Overcast
6:15 PM 17.6 °F 6.4 °F 15.8 °F 93% 29.99 in 6.0 mi NNW 9.2 mph - N/A   Overcast
6:35 PM 17.6 °F 5.7 °F 15.8 °F 93% 29.99 in 6.0 mi North 10.4 mph - N/A Rain Light Freezing Rain
6:55 PM 17.6 °F 5.7 °F 15.8 °F 93% 29.99 in 7.0 mi NNW 10.4 mph - N/A   Overcast
7:15 PM 17.6 °F 3.7 °F 14.0 °F 86% 30.00 in 7.0 mi NNW 13.8 mph - N/A   Overcast
7:35 PM 17.6 °F 3.7 °F 14.0 °F 86% 30.00 in 8.0 mi NNW 13.8 mph - N/A   Overcast
7:55 PM 17.6 °F 5.7 °F 14.0 °F 86% 30.00 in 8.0 mi NNW 10.4 mph - N/A   Overcast
8:15 PM 17.6 °F 5.7 °F 14.0 °F 86% 30.00 in 9.0 mi NNW 10.4 mph - N/A   Overcast
8:35 PM 17.6 °F 6.4 °F 14.0 °F 86% 30.00 in 8.0 mi NNW 9.2 mph 15.0 mph N/A Snow Light Snow
8:55 PM 15.8 °F 3.4 °F 14.0 °F 93% 30.00 in 10.0 mi NNW 10.4 mph - N/A   Overcast
9:15 PM 15.8 °F 1.4 °F 14.0 °F 93% 30.00 in 9.0 mi NNW 13.8 mph - N/A   Overcast
9:35 PM 15.8 °F 2.7 °F 12.2 °F 86% 30.00 in 8.0 mi NNW 11.5 mph - N/A Snow Light Snow
9:55 PM 14.0 °F 0.5 °F 10.4 °F 86% 30.01 in 7.0 mi NNW 11.5 mph - N/A Snow Light Snow
10:15 PM 12.2 °F -1.8 °F 10.4 °F 92% 30.01 in 7.0 mi NNW 11.5 mph - N/A Snow Light Snow
10:35 PM 10.4 °F -2.4 °F 6.8 °F 85% 30.02 in 6.0 mi NNW 9.2 mph 16.1 mph N/A   Overcast
10:55 PM 10.4 °F -3.3 °F 8.6 °F 92% 30.02 in 6.0 mi NNW 10.4 mph - N/A   Overcast
11:15 PM 12.2 °F -1.0 °F 10.4 °F 92% 30.02 in 7.0 mi NNW 10.4 mph - N/A   Overcast
11:35 PM 12.2 °F -1.8 °F 10.4 °F 92% 30.02 in 6.0 mi NW 11.5 mph - N/A   Overcast
11:55 PM 12.2 °F -1.8 °F 10.4 °F 92% 30.02 in 7.0 mi NW 11.5 mph - N/A   Overcast